Вернуться в каталог

RADIO 7

АктивенЛюбительское радиоPO
NORAD 13001·PAYLOAD·🇷🇺 Russia

Запущен Dec 17, 1981 с Plesetsk Cosmodrome

Loading…

Ближайшие Пролёты (ближайшие 24 часа)

TLE

СвежийSource: Space-Track

Эпоха: Sep 14, 2026, 13:54 UTC

1 13001U 81120E   26257.57974721  .00000022  00000-0  13556-3 0  9998
2 13001  82.9645 334.0875 0024047 181.3433 245.5049 12.08950748974240

Отслеживайте RADIO 7 в реальном времени с AllMySat

Download on the App Store